Tracking 17560 objects as of 12-February-2016
HD Live streaming from Space Station
objects crossing your sky now

PSLV DEB

Track PSLV DEB now!
10-day predictions


NORAD ID: 27114
Int'l Code: 2001-049BJ
Perigee: 442.9 km
Apogee: 457.1 km
Inclination: 97.8 °
Period: 93.4 minutes
Semi major axis: 6820 km
RCS: 0.0473 m2 (small)
Launch date: October 22, 2001
Source: India (IND)
Launch site: SIRHARIKOTA (SRI)

Note: This is SATELLITE DEBRIS
Your satellite tracking list
Your tracking list is empty





NASA's NSSDC Master Catalog

Two Line Element Set (TLE):
1 27114U 01049BJ  16042.89612230  .00049952  00000-0  12011-2 0  9999
2 27114  97.8358  39.4022 0010415 175.7693 184.3643 15.4111175769351
Source of the keplerian elements: AFSPC

N2YO: 778